Location: Martz Observatory
(42.0083°N, 79.0667°W)
Time: 18:01:51
(UTC-04:00)

Cosmos 1758 Rocket - Pass Details

Date: 26 May 2018
Orbit: 603 x 636 km, 82.5° (Epoch: 15 August)

Event Time Altitude Azimuth Distance (km) Brightness Sun altitude
Exits shadow 01:53:08 45° 301° (WNW) 868 4.3 -26.2°
Drops below altitude 10° 01:57:02 10° 356° (N) 2,031 7.1 -26.1°
Sets 01:59:22 0° 3° (N) 2,945 8.3 -26.0°
